Rawlins, WY

11:59 AM MDT on August 28, 2016 (GMT -0600)
Rawlins Municipal

Weather History for KRWL - February, 2013

Change the Weather History Date:

Monday, February 4, 2013

  Actual Average Record
Temperature  
Mean Temperature 30 °F 22 °F  
Max Temperature 38 °F 32 °F 55 °F (1963)
Min Temperature 22 °F 12 °F -30 °F (1982)
Degree Days  
Heating Degree Days 35 43  
Month to date heating degree days 144 173  
Since 1 July heating degree days 4510 4972  
Cooling Degree Days 0 0  
Month to date cooling degree days 0 0  
Year to date cooling degree days 0 0  
Moisture  
Dew Point 15 °F    
Average Humidity 56    
Maximum Humidity 63    
Minimum Humidity 48    
Precipitation  
Precipitation 0.00 in 0.01 in 0.15 in (1979)
Month to date precipitation 0.01 0.05  
Year to date precipitation 0.12 0.41  
Sea Level Pressure  
Sea Level Pressure 30.03 in    
Wind  
Wind Speed 25 mph (WSW)    
Max Wind Speed 39 mph    
Max Gust Speed 46 mph    
Visibility 10 miles    
Events      
T = Trace of Precipitation, MM = Missing Value Source: NWS Daily Summary

Daily Weather History Graph

Daily Weather History Graph

Search for Another Location

Airport or City:

Trip Planner

Search our weather history database for the weather conditions in past years. The results will help you decide how hot, cold, wet, or windy it might be!

Date:

Astronomy

Feb. 04, 2013 Rise Set
Actual Time 7:17 AM MST 5:28 PM MST
Civil Twilight 6:48 AM MST 5:57 PM MST
Nautical Twilight 6:15 AM MST 6:30 PM MST
Astronomical Twilight 5:42 AM MST 7:03 PM MST
Moon 1:57 AM MST (2/4) 11:53 AM MST (2/4)
Length of Visible Light 11h 09m
Length of Day
10h 10m
Last Quarter, 36% of the Moon is Illuminated
Feb 4
Last Quarter
Feb 10
New
Feb 17
First Quarter
Feb 25
Full
Mar 4
Last Quarter

Hourly Weather History & Observations

Time (MST) Temp. Windchill Dew Point Humidity Pressure Visibility Wind Dir Wind Speed Gust Speed Precip Events Conditions
12:53 AM 25.0 °F 9.5 °F 10.9 °F 55% 30.03 in 10.0 mi WSW 24.2 mph - N/A   Clear
1:53 AM 25.0 °F 8.9 °F 10.9 °F 55% 30.03 in 10.0 mi WSW 26.5 mph 33.4 mph N/A   Clear
3:53 AM 24.1 °F 8.3 °F 10.0 °F 55% 30.03 in 10.0 mi WSW 24.2 mph 34.5 mph N/A   Clear
4:53 AM 23.0 °F 6.9 °F 10.9 °F 60% 30.05 in 10.0 mi WSW 24.2 mph - N/A   Partly Cloudy
5:53 AM 21.9 °F 4.8 °F 10.9 °F 63% 30.06 in 10.0 mi WSW 26.5 mph - N/A   Partly Cloudy
6:53 AM 24.1 °F 9.0 °F 12.0 °F 60% 30.07 in 10.0 mi WSW 21.9 mph 29.9 mph N/A   Overcast
7:53 AM 24.1 °F 7.4 °F 12.9 °F 62% 30.07 in 10.0 mi WSW 27.6 mph 34.5 mph N/A   Mostly Cloudy
8:53 AM 26.1 °F 12.0 °F 14.0 °F 60% 30.09 in 10.0 mi WSW 20.7 mph 29.9 mph N/A   Scattered Clouds
9:53 AM 27.0 °F 10.8 °F 15.1 °F 61% 30.07 in 10.0 mi WSW 29.9 mph 34.5 mph N/A   Clear
10:53 AM 28.0 °F 12.8 °F 16.0 °F 61% 30.04 in 10.0 mi WSW 27.6 mph 39.1 mph N/A   Clear
11:53 AM 30.9 °F 15.5 °F 17.1 °F 57% 30.01 in 10.0 mi WSW 33.4 mph 46.0 mph N/A   Clear
12:53 PM 33.1 °F 18.0 °F 18.0 °F 54% 29.99 in 10.0 mi WSW 35.7 mph 42.6 mph N/A   Clear
1:53 PM 34.0 °F 20.8 °F 19.0 °F 54% 29.98 in 10.0 mi WSW 27.6 mph 36.8 mph N/A   Clear
2:53 PM 35.1 °F 24.1 °F 19.9 °F 54% 29.98 in 10.0 mi WSW 19.6 mph 27.6 mph N/A   Partly Cloudy
3:53 PM 37.0 °F 25.1 °F 19.0 °F 48% 29.96 in 10.0 mi West 26.5 mph 36.8 mph N/A   Partly Cloudy
4:53 PM 34.0 °F 22.1 °F 19.9 °F 56% 29.99 in 10.0 mi West 21.9 mph 34.5 mph N/A   Clear
5:53 PM 30.9 °F 18.1 °F 19.0 °F 61% 30.03 in 10.0 mi WSW 21.9 mph - N/A   Clear
6:53 PM 30.0 °F 17.5 °F 17.1 °F 59% 30.04 in 10.0 mi WSW 19.6 mph - N/A   Clear
7:53 PM 28.9 °F 14.0 °F 17.1 °F 61% 30.04 in 10.0 mi WSW 27.6 mph 38.0 mph N/A   Clear
8:53 PM 27.0 °F 13.9 °F 16.0 °F 63% 30.07 in 10.0 mi WSW 18.4 mph 27.6 mph N/A   Clear
9:53 PM 27.0 °F 11.9 °F 16.0 °F 63% 30.05 in 10.0 mi WSW 25.3 mph 33.4 mph N/A   Clear
10:53 PM 27.0 °F 11.9 °F 16.0 °F 63% 30.06 in 10.0 mi West 25.3 mph 31.1 mph N/A   Clear
11:53 PM 27.0 °F 11.3 °F 15.1 °F 61% 30.05 in 10.0 mi WSW 27.6 mph 36.8 mph N/A   Clear